Wind_Speed
26 27 27 28 28 29 31 33 36 38 38 38 35 32 33 31 28 28 27 28 29 30 29 29 26 22 18 7 14 18 18 14 12 11 9 9 10 10 12 6 11 16 16 16 17 18 20
23 24 25 26 26 27 28 30 30 32 34 35 35 33 34 32 31 31 29 33 31 30 30 31 26 20 11 11 12 12 10 13 13 16 18 17 12 14 10 10 12 4 9 12 12 14 17
21 22 22 23 24 25 27 29 29 29 30 30 31 32 33 33 32 32 32 32 30 31 30 30 22 18 13 22 19 25 19 16 14 12 14 14 12 12 6 9 13 13 16 16 18 20 16
24 23 23 24 24 25 26 28 29 31 32 32 32 31 29 32 31 30 30 29 31 29 27 23 18 12 13 17 21 22 20 20 15 12 10 7 10 12 11 9 10 10 13 13 3 5 8
26 25 25 28 27 27 27 27 29 30 33 34 33 33 32 29 31 29 31 28 31 26 24 17 12 8 14 14 13 9 17 16 17 13 11 3 8 13 8 12 12 13 14 14 10 10 11
28 27 28 29 29 28 28 29 30 30 32 34 34 33 31 30 26 30 27 28 26 25 13 8 9 8 15 11 7 7 6 12 13 16 12 12 10 11 12 12 15 15 17 14 13 5 11
26 25 27 28 31 32 30 31 31 32 32 32 34 32 29 27 32 32 29 24 12 6 14 15 11 11 4 4 8 8 12 12 14 19 19 20 14 20 22 19 21 15 15 17 15 14 14
24 25 27 29 32 35 33 31 32 33 34 33 35 29 26 28 34 31 24 18 17 7 8 21 26 28 26 12 13 16 14 16 19 19 19 13 22 22 19 18 17 17 18 18 14 12 9
24 26 29 32 36 36 34 32 32 33 33 34 33 27 25 30 34 31 31 27 25 16 3 15 22 26 24 22 23 29 22 24 17 21 23 23 10 9 15 18 19 19 19 16 14 14 16
26 29 32 36 38 38 35 34 33 32 33 34 29 25 25 36 32 33 35 27 20 9 1 8 9 11 16 12 12 31 30 24 15 21 20 16 21 11 13 20 16 18 17 15 16 12 10
28 29 31 36 36 37 33 32 32 32 28 23 22 26 39 41 32 37 30 20 17 7 5 3 4 2 8 16 8 7 31 32 25 17 12 12 10 16 21 18 14 13 10 14 14 13 13
29 27 31 35 34 37 30 29 31 30 20 18 23 33 36 40 32 31 24 27 19 4 8 2 6 8 9 14 6 3 25 24 23 13 15 18 3 7 10 16 18 8 10 11 10 10 12
28 26 30 35 36 37 28 27 31 23 19 18 27 32 33 37 36 29 39 29 3 5 5 10 9 8 11 9 11 9 17 21 12 17 19 16 15 4 4 8 8 11 11 8 9 8 10
29 25 27 33 34 37 26 26 25 20 20 24 27 28 40 38 33 40 40 3 8 6 13 3 4 8 10 9 6 7 16 17 9 12 9 13 10 10 3 6 8 14 15 10 11 11 5
29 25 25 31 32 35 24 22 18 19 24 26 38 50 43 32 42 46 24 5 7 8 7 8 7 11 12 10 6 10 14 19 17 7 11 9 5 3 5 2 2 7 10 4 6 8 9
30 26 25 26 28 31 26 13 21 25 31 33 45 33 29 47 50 37 3 5 7 6 5 8 14 11 13 13 12 10 13 3 6 1 4 3 2 2 2 1 1 4 3 3 4 5 12
29 28 25 21 21 21 18 11 16 35 35 43 35 14 24 46 42 15 4 4 8 4 5 6 9 7 7 7 9 9 8 5 6 3 4 6 9 5 1 6 9 5 6 5 5 6 7
29 28 27 23 20 16 7 19 39 47 43 36 16 4 31 44 4 3 4 8 5 1 1 2 2 2 8 1 6 4 4 3 6 11 8 3 2 8 8 1 6 7 9 10 8 10 8
30 28 28 23 23 15 17 16 26 28 22 21 9 9 22 22 5 7 8 7 8 13 10 6 3 5 4 4 1 4 3 3 6 3 7 6 4 5 4 5 4 6 7 6 4 3 12
30 31 30 23 22 19 17 24 21 18 17 17 9 5 5 3 1 13 10 7 8 2 3 3 4 4 7 7 7 7 7 2 2 5 7 4 5 8 8 5 2 6 12 10 8 5 12
28 34 31 22 23 23 20 20 21 24 24 13 5 5 11 8 6 11 12 12 14 9 5 7 5 8 9 6 9 8 8 8 5 6 3 2 5 8 9 7 6 9 12 15 18 17 17
31 18 30 21 22 23 22 20 22 25 17 4 8 6 11 18 15 13 10 15 16 9 9 8 6 8 8 6 7 11 9 8 6 5 4 2 2 3 9 10 11 14 16 19 19 18 21
29 30 21 16 22 25 22 21 27 23 15 3 5 14 12 13 13 13 12 14 15 12 5 4 11 9 8 8 8 9 5 6 4 5 6 5 4 4 6 3 6 12 17 16 16 12 13
29 21 19 17 20 20 21 25 27 26 13 7 11 11 11 9 12 14 13 13 15 5 9 9 8 6 5 6 6 4 3 3 3 5 6 5 6 4 3 3 7 4 6 5 7 12 4
30 23 19 21 22 20 21 23 37 27 11 7 12 2 5 8 12 10 16 16 17 17 14 12 7 5 6 5 4 5 4 5 3 3 9 10 9 5 4 8 7 5 1 4 4 2 4
26 24 19 23 22 24 21 23 28 23 9 7 5 5 5 8 4 18 14 17 13 8 7 5 5 6 4 2 2 4 3 2 4 6 3 8 12 7 4 4 3 4 7 8 5 8 5
28 24 17 22 22 16 16 17 13 14 9 8 5 8 7 9 6 12 6 9 8 6 5 6 6 4 2 2 3 3 3 0 3 3 4 6 7 10 9 5 1 6 14 10 6 5 6
24 24 16 29 18 15 17 19 17 13 7 9 7 12 11 9 9 6 7 7 7 7 5 9 6 2 3 3 2 3 2 2 1 4 1 4 6 4 4 5 3 16 1 5 3 5 6
20 26 20 21 14 15 15 12 16 9 10 11 10 14 27 14 12 21 19 13 8 5 13 7 2 4 2 2 2 3 3 2 1 3 1 2 4 2 4 4 5 8 8 6 6 7 9
Wind_Direction
267 268 269 269 271 272 271 270 270 271 273 271 269 266 267 272 279 285 286 284 288 290 294 298 298 302 309 288 263 272 269 256 243 235 214 209 213 222 240 240 240 239 256 261 259 260 262
269 269 270 272 273 272 272 272 273 275 275 274 272 266 264 264 267 274 279 281 286 285 290 294 292 298 294 265 263 281 257 262 250 244 245 235 243 242 262 238 235 305 264 262 260 253 255
271 273 276 276 275 275 275 274 273 273 275 276 275 273 269 267 262 267 276 277 287 288 289 289 285 287 269 257 265 270 256 252 249 243 244 236 227 213 236 240 250 263 271 265 256 252 244
273 277 279 279 277 278 279 279 278 277 275 274 272 273 276 270 266 264 271 276 284 286 287 282 282 281 259 274 264 257 252 245 241 221 213 217 214 226 237 259 247 257 257 264 173 217 218
277 279 280 280 280 281 279 279 279 280 278 276 272 269 270 267 264 257 266 279 275 278 282 278 280 262 270 271 269 263 238 230 227 216 204 200 209 231 211 234 251 223 261 233 254 222 261
279 283 283 283 283 279 278 276 276 279 280 279 274 268 264 257 247 252 252 268 263 272 270 279 230 263 249 243 227 235 221 208 201 201 212 215 221 224 222 223 236 256 241 253 253 220 229
283 287 285 284 283 283 281 280 279 278 279 285 278 272 266 244 241 246 235 241 258 237 216 215 225 235 268 266 257 226 206 185 196 201 215 210 224 225 232 227 255 267 271 268 270 269 275
286 287 289 287 286 285 286 286 285 280 279 276 283 267 263 230 234 237 239 214 234 228 283 247 246 251 247 260 271 237 196 186 194 211 209 206 234 239 235 244 240 247 258 260 272 270 269
280 278 278 283 287 287 288 287 285 282 279 273 272 259 248 220 235 222 235 229 241 235 261 267 237 250 250 226 239 246 208 212 209 218 209 216 246 264 228 230 233 235 245 256 266 286 275
279 282 286 285 286 289 290 288 286 282 279 271 254 244 222 213 206 230 210 217 212 183 337 249 207 251 213 201 244 239 221 212 220 238 230 236 252 224 224 234 221 242 234 255 256 259 261
276 285 293 288 288 291 292 289 290 287 278 254 241 231 208 213 210 197 218 202 197 138 267 67 152 191 180 191 328 223 210 209 223 212 205 219 232 236 234 232 213 250 256 246 244 251 263
271 280 290 290 290 296 296 292 292 283 252 249 223 208 204 206 203 210 198 159 137 145 249 254 175 193 176 212 239 32 183 214 226 229 225 252 215 231 252 235 243 268 230 231 243 250 249
270 275 288 288 292 297 301 295 287 258 238 223 208 209 200 208 198 179 164 145 126 216 145 197 204 189 216 201 208 194 186 195 192 205 212 210 215 191 223 197 187 218 228 230 222 210 243
268 272 284 287 292 298 306 296 274 232 221 213 209 209 202 204 201 180 160 128 203 224 217 57 240 202 216 184 192 199 188 199 239 244 222 209 198 203 155 247 243 214 229 245 257 247 258
265 269 276 283 289 298 310 289 238 212 210 213 200 184 193 182 183 175 147 216 197 212 186 188 202 212 207 202 218 182 192 200 198 221 217 209 183 89 60 15 287 189 225 343 280 261 269
263 267 266 276 283 294 308 280 224 216 207 206 178 168 163 171 171 160 138 197 215 188 184 201 210 205 210 194 194 203 187 178 156 69 28 90 236 222 141 230 113 285 63 192 218 253 254
259 262 260 260 273 295 290 300 220 209 197 186 163 134 158 168 160 155 184 175 188 177 198 195 209 202 224 189 210 185 182 145 151 78 117 175 226 140 203 212 251 193 215 232 298 263 270
255 254 251 258 261 257 189 176 165 161 159 157 135 105 152 165 149 220 161 165 150 183 327 94 109 132 206 108 167 134 145 77 142 155 167 166 209 229 212 338 261 253 258 253 238 240 247
249 249 236 244 248 238 210 163 151 155 142 139 93 102 153 172 184 171 154 144 175 175 187 176 142 83 54 104 55 319 77 58 146 156 152 167 197 200 198 206 199 218 212 203 224 250 250
250 245 234 229 224 214 218 215 211 202 218 149 123 127 179 212 225 168 159 159 153 156 144 133 166 168 176 165 176 179 162 102 124 134 105 159 214 247 257 37 62 197 192 204 206 234 251
251 230 214 213 216 215 223 218 209 201 187 146 148 157 171 176 177 168 169 171 168 171 196 181 157 200 183 172 177 190 155 143 126 126 94 175 238 240 254 259 247 253 237 234 240 241 255
253 237 203 215 215 206 207 199 188 166 146 141 140 152 169 156 151 165 190 184 177 148 173 176 181 156 183 181 219 179 166 178 175 164 156 148 217 254 260 259 253 259 257 254 257 262 269
247 184 190 206 201 199 193 193 175 180 159 127 128 129 130 156 168 172 187 182 180 147 64 158 148 141 138 113 94 99 87 128 138 177 179 183 185 207 246 254 272 267 249 251 253 261 258
193 176 185 193 186 183 188 189 188 182 151 110 138 145 158 161 172 182 175 174 159 154 135 124 128 131 116 122 110 107 130 172 195 205 191 196 195 213 269 224 242 75 53 322 284 282 270
177 174 178 181 179 175 173 187 179 185 163 126 157 147 144 149 166 169 154 130 114 109 107 107 73 96 136 137 163 162 157 165 166 196 220 224 213 226 247 224 300 205 73 350 319 293 21
160 170 162 173 172 173 174 179 187 191 194 185 217 192 129 131 133 148 138 146 137 124 115 96 93 119 115 116 179 192 175 119 164 165 0 203 224 209 181 261 260 67 332 322 270 241 24
159 154 158 158 142 157 165 169 179 192 169 207 220 169 122 105 103 148 133 144 136 128 114 137 150 132 156 147 158 173 145 2 191 169 158 148 192 217 222 255 157 355 325 321 210 42 357
151 146 155 154 144 152 161 166 185 160 193 183 178 156 129 101 69 93 99 115 126 153 151 145 143 157 155 173 179 145 173 127 174 80 261 186 183 189 212 229 238 5 350 352 54 51 52
140 153 145 148 146 132 131 141 156 171 165 146 146 141 133 100 110 92 90 94 103 134 131 146 102 123 129 154 152 126 158 183 191 133 94 192 343 43 356 50 58 39 47 35 69 84 73
Height
1499 1499 1499 1499 1501 1501 1502 1503 1504 1504 1505 1506 1507 1507 1510 1511 1512 1511 1511 1511 1509 1509 1508 1506 1505 1504 1505 1505 1499 1496 1495 1496 1497 1498 1500 1500 1498 1495 1492 1491 1491 1490 1485 1484 1485 1486 1484
1493 1492 1492 1493 1493 1494 1495 1496 1495 1497 1499 1498 1499 1500 1502 1505 1506 1506 1506 1506 1505 1505 1503 1502 1501 1501 1503 1502 1491 1492 1490 1494 1494 1496 1497 1497 1495 1494 1490 1490 1488 1484 1485 1482 1481 1479 1479
1486 1486 1487 1488 1487 1488 1488 1489 1488 1489 1492 1492 1491 1492 1494 1497 1500 1501 1501 1500 1500 1502 1500 1498 1497 1497 1496 1492 1487 1487 1487 1488 1493 1491 1495 1494 1494 1494 1489 1486 1485 1485 1482 1476 1474 1474 1471
1480 1480 1481 1481 1481 1481 1481 1482 1482 1482 1483 1486 1485 1486 1484 1490 1493 1496 1495 1494 1496 1497 1497 1495 1494 1495 1487 1482 1481 1480 1481 1482 1486 1489 1491 1492 1492 1490 1490 1486 1482 1480 1475 1471 1462 1467 1468
1475 1474 1474 1475 1475 1474 1474 1475 1474 1475 1475 1477 1478 1479 1476 1481 1487 1489 1490 1490 1492 1492 1493 1492 1495 1495 1482 1474 1474 1475 1474 1479 1483 1487 1488 1490 1492 1489 1486 1482 1475 1468 1462 1459 1460 1463 1462
1469 1468 1468 1469 1469 1467 1468 1467 1467 1467 1468 1467 1469 1471 1469 1473 1478 1481 1485 1487 1487 1488 1488 1490 1494 1498 1478 1473 1471 1471 1471 1476 1481 1485 1489 1488 1486 1480 1478 1473 1461 1450 1454 1457 1461 1455 1461
1463 1463 1462 1462 1461 1461 1460 1460 1458 1459 1460 1460 1459 1461 1463 1468 1471 1472 1479 1485 1488 1486 1482 1479 1477 1475 1473 1473 1470 1469 1468 1472 1478 1479 1478 1480 1476 1463 1463 1464 1460 1456 1459 1458 1454 1455 1458
1457 1456 1456 1455 1454 1453 1452 1450 1451 1450 1450 1451 1450 1452 1456 1462 1464 1468 1473 1474 1477 1477 1473 1471 1474 1466 1465 1469 1468 1468 1469 1469 1470 1466 1469 1472 1467 1455 1457 1461 1462 1461 1461 1457 1453 1454 1457
1452 1451 1450 1448 1446 1445 1444 1442 1441 1440 1440 1439 1440 1444 1449 1455 1459 1461 1465 1468 1470 1474 1479 1463 1463 1459 1459 1462 1458 1456 1464 1461 1460 1458 1454 1455 1449 1452 1456 1458 1460 1456 1455 1454 1455 1450 1448
1445 1445 1444 1440 1437 1436 1435 1434 1431 1428 1428 1429 1430 1435 1440 1446 1456 1455 1458 1464 1466 1473 1482 1452 1450 1447 1450 1452 1449 1447 1452 1455 1456 1452 1453 1454 1449 1453 1455 1454 1455 1450 1447 1453 1454 1451 1443
1438 1438 1436 1431 1429 1426 1426 1423 1422 1418 1417 1419 1421 1426 1428 1437 1442 1449 1454 1460 1464 1475 1468 1440 1444 1445 1445 1446 1438 1434 1441 1448 1443 1448 1451 1448 1450 1450 1449 1446 1449 1447 1447 1449 1447 1444 1441
1431 1429 1428 1424 1422 1418 1416 1413 1411 1410 1410 1410 1413 1417 1422 1432 1437 1443 1450 1457 1465 1474 1449 1437 1438 1442 1442 1441 1437 1437 1439 1447 1446 1448 1450 1445 1447 1446 1443 1444 1447 1450 1449 1447 1445 1442 1441
1423 1422 1420 1416 1412 1411 1407 1403 1402 1401 1402 1405 1406 1411 1418 1426 1431 1437 1445 1456 1467 1450 1437 1431 1430 1435 1433 1432 1435 1434 1436 1439 1438 1445 1442 1442 1442 1444 1445 1444 1447 1449 1445 1443 1442 1441 1430
1416 1415 1413 1409 1405 1400 1399 1393 1391 1393 1396 1401 1404 1412 1413 1423 1427 1430 1441 1455 1442 1424 1425 1427 1428 1426 1429 1428 1427 1430 1432 1436 1439 1435 1431 1436 1443 1442 1445 1442 1439 1442 1438 1437 1436 1423 1416
1408 1407 1406 1403 1399 1392 1389 1385 1384 1387 1392 1395 1397 1404 1411 1414 1419 1426 1432 1439 1422 1424 1421 1425 1428 1427 1425 1425 1424 1427 1431 1432 1434 1435 1432 1436 1439 1448 1449 1450 1451 1441 1444 1442 1443 1436 1436
1399 1400 1399 1398 1393 1387 1382 1377 1379 1383 1383 1391 1395 1403 1409 1412 1415 1424 1431 1422 1423 1420 1421 1422 1416 1416 1416 1420 1421 1421 1427 1433 1439 1441 1436 1447 1447 1449 1451 1452 1451 1447 1446 1449 1447 1447 1432
1391 1392 1393 1393 1390 1383 1380 1373 1374 1375 1380 1386 1393 1403 1409 1414 1418 1421 1422 1422 1422 1423 1424 1419 1415 1418 1415 1423 1418 1421 1427 1439 1437 1443 1443 1445 1449 1453 1453 1449 1441 1447 1446 1448 1446 1438 1432
1384 1384 1386 1385 1385 1385 1381 1377 1376 1378 1379 1383 1391 1404 1408 1411 1420 1420 1419 1421 1423 1422 1424 1421 1422 1420 1420 1427 1423 1426 1429 1430 1439 1441 1441 1447 1441 1439 1444 1452 1453 1450 1448 1445 1446 1440 1437
1375 1376 1376 1379 1380 1380 1381 1380 1380 1380 1382 1381 1393 1404 1411 1413 1409 1414 1418 1420 1418 1420 1420 1419 1421 1420 1426 1432 1436 1434 1435 1442 1441 1441 1440 1444 1442 1442 1446 1452 1451 1446 1446 1448 1454 1451 1443
1365 1368 1370 1373 1374 1375 1378 1379 1381 1382 1382 1384 1390 1402 1411 1411 1410 1408 1416 1420 1419 1419 1420 1421 1422 1424 1427 1431 1438 1438 1439 1443 1443 1442 1444 1445 1440 1436 1431 1435 1438 1448 1446 1448 1452 1452 1436
1356 1360 1361 1366 1369 1371 1373 1375 1376 1378 1380 1383 1387 1390 1394 1401 1407 1409 1413 1418 1415 1417 1419 1420 1422 1420 1423 1428 1432 1434 1437 1441 1444 1446 1446 1446 1446 1442 1440 1442 1447 1444 1443 1443 1442 1442 1443
1346 1346 1355 1361 1363 1366 1369 1371 1373 1376 1378 1381 1384 1385 1392 1393 1402 1408 1411 1406 1407 1413 1415 1418 1417 1421 1423 1424 1423 1429 1432 1435 1438 1446 1446 1450 1450 1450 1446 1445 1445 1444 1440 1438 1437 1439 1437
1339 1344 1351 1355 1358 1362 1365 1368 1372 1375 1378 1379 1380 1382 1387 1397 1400 1405 1404 1403 1405 1412 1420 1417 1419 1422 1426 1432 1433 1434 1438 1438 1439 1441 1446 1447 1448 1451 1447 1448 1448 1444 1434 1434 1434 1435 1435
1338 1343 1348 1353 1357 1359 1362 1366 1370 1374 1376 1379 1380 1385 1388 1394 1396 1397 1401 1404 1408 1411 1415 1423 1423 1424 1434 1434 1436 1438 1440 1442 1443 1444 1446 1446 1451 1449 1447 1457 1448 1439 1439 1440 1440 1438 1439
1336 1342 1347 1351 1355 1358 1362 1363 1369 1372 1376 1379 1381 1384 1387 1390 1391 1398 1401 1405 1411 1416 1420 1422 1427 1431 1432 1434 1433 1433 1436 1438 1440 1443 1444 1446 1445 1447 1448 1437 1430 1439 1449 1450 1447 1439 1446
1336 1342 1347 1351 1354 1357 1361 1364 1368 1372 1376 1379 1382 1384 1387 1390 1395 1397 1401 1405 1408 1415 1421 1427 1431 1431 1433 1434 1431 1425 1425 1425 1436 1443 1445 1444 1445 1447 1447 1445 1432 1443 1448 1448 1449 1436 1448
1337 1343 1348 1352 1355 1358 1361 1365 1369 1372 1376 1380 1381 1383 1386 1392 1402 1403 1403 1407 1412 1414 1418 1426 1429 1431 1433 1430 1429 1426 1425 1429 1428 1430 1439 1445 1447 1447 1443 1441 1430 1448 1447 1445 1438 1444 1448
1340 1345 1349 1354 1357 1359 1361 1367 1370 1373 1376 1379 1381 1382 1384 1392 1402 1405 1406 1408 1412 1413 1415 1425 1427 1430 1430 1429 1426 1429 1430 1432 1432 1440 1438 1435 1437 1439 1442 1442 1432 1450 1445 1440 1450 1451 1449
1343 1348 1352 1355 1358 1361 1364 1368 1371 1373 1376 1379 1381 1383 1386 1391 1406 1407 1408 1411 1412 1413 1416 1423 1425 1426 1427 1424 1426 1430 1432 1434 1436 1427 1441 1439 1443 1436 1444 1444 1455 1455 1454 1453 1451 1451 1451